STARLINK-5719, 55609

Orbit data source: Space-Track

STARLINK-5719, 55609 is a payload satellite owned by SpaceX/Seattle (US) in LEO that was launched on Sun, 12 Feb 2023 UTC via an FALCON 9 launch vehicle from the Air Force Eastern Test Range (AFETR). Payload-class satellites include a variety of spacecraft equipped with specific instruments for various scientific and technological missions. These include communications satellites like Starlink; space stations such as the ISS; scientific satellites like the Hubble; Earth observation satellites from companies like Planet Labs, Umbra, and HawkEye 360; GPS; miniature CubeSats for education and research; and military/defense satellites.

Loading next visibility...
Identifier
55609, 2023-020AS
Orbit
LEO
Country
Flag of USUS
Related business
Manufacturer
SpaceX/Seattle
Mission
Operational Commercial Communications
Bus & Motor
STARLINK, Unknown motor
Mass
305 kg wet, ~290 kg dry
Launch date (UTC)
2023-02-12 (3 years ago)
Launch vehicle
FALCON 9
Launch site
Air Force Eastern Test Range (AFETR)
Object type
Payload
Rocket body
Debris
Shape & HBR
Box + 1 Pan, 10.1 m
Radar Cross Section
13.562 m², Large (>1 m²)

Expand to show TLE details & history
Last TLE update: 2 days ago

TLE from 2 days ago
0 STARLINK-5719
1 55609U 23020AS  26171.31443492 -.00000004  00000-0  93744-5 0  9996
2 55609  43.0015 134.7288 0001332 266.4688  93.6011 15.27578699184734
Epoch: 2026-06-20T07:32Z
TLE epoch observation values (Epoch: 2026-06-20T07:32:47.177Z)
Latitude
-0.00002°
Longitude
113.00137°
Altitude
482.886 km
Speed
7.626 km/s
True Right ascension
08h 58m 54s
True Declination
0° 00' 00"
Sunlit
Object was in daylight at epoch
Visualization orbit readout
Latitude
Unknown
Longitude
Unknown
Altitude
Unknown
Speed
Unknown
Apparent Right ascension
Unknown
Apparent Declination
Unknown
Sunlit
N/A
Visualization observer readout
Local Sidereal Time
21:39:04
Azimuth
Unknown
Elevation
Unknown
Doppler factor
Unknown
Orbital elements
Apogee altitude
485.912 km
Perigee altitude
484.084 km
Semi-major axis
6,863.135 km
Eccentricity
0.00013
Inclination
43.0015°
RAAN
134.7288°
Arg. of periapsis
266.4688°
True anomaly
93.61633°
Mean anomaly
93.6011°
Eccentric anomaly
93.60872°
Mean motion
3.81733 °/min
Orbital period
94.31 mins
BSTAR
0.0000093744
Loading maneuver chart data...
Computing Atmospheric mass density...
Loading historical data...
Loading historical data...
Loading historical data...
Loading historical data...
Loading historical data...
Loading historical data...
Loading historical data...

Documentation

Showing up to 5 results
|